loading
|

STARLINK-32272, 60735

Orbit data source: Space-Track

STARLINK-32272, 60735 is a payload satellite owned by SpaceX/Seattle (US) in LEO that was launched on Wed, 28 Aug 2024 UTC via an FALCON 9 launch vehicle from the Air Force Eastern Test Range (AFETR). Payloads include a variety of satellites, spacecraft, and rockets equipped with specific instruments for various scientific and technological missions. These include communications satellites like Starlink; space stations such as the ISS; scientific satellites like the Hubble; Earth observation satellites from companies like Planet Labs, Umbra, and HawkEye 360; GPS; miniature CubeSats for education and research; and military/defense satellites.

Loading next visibility...
Loading greatness...
STARLINK-32272 details
Identifier
60735, 2024-152R
Orbit
LEO
Last TLE update9 hours ago
Origin
Flag of USSpaceX/Seattle (US)
ManufacturerSpaceX/Seattle
Mission statusOperational
MissionUnknown
Bus & MotorSTARLINK V2M, Unknown motor
Mass750 kg wet, ~700 kg dry
Launch date (UTC)
2024-08-28 (3 weeks ago)
Launch vehicle
FALCON 9
Launch site
Air Force Eastern Test Range (AFETR)
Object type
Payload
Rocket body
Debris
Radar Cross SectionLarge (>1 m²)

Expand to show TLE details & history

TLE from 9 hours ago
0 STARLINK-32272
1 60735U 24152R   24261.58335648 -.01769181  00000-0 -26998-1 0  9992
2 60735  53.1589 249.5397 0000899  80.4227 181.3544 15.57012032  4424
Epoch: 2024-09-17T14:00Z
Definitive object data (Epoch: 2024-09-17T14:00:01.999Z)
Latitude-52.53795°
Longitude-60.9843°
Altitude415.152 km
Speed7.661 km/s
True Right ascension09h 44m 04s
True Declination-52° 21' 48"
Sunlit
Object was in daylight at TLE epoch
Predictive object data (real-time)
Latitude-32.48943°
Longitude-110.96897°
Altitude411.233 km
Speed7.664 km/s
Apparent Right ascension05h 15m 00s
Apparent Declination-37° 24' 23"
Sunlit
Object is in daylight
Predictive observer data (real-time)
Local Sidereal Time15:53:38
Azimuth272.487° WNW
Elevation-73.954°
Doppler factor1
Orbital elements
Apogee397.179 km
Perigee395.961 km
Semi-major axis6,774.707 km
Eccentricity0.0000899
Inclination53.1589°
RAAN249.5397°
Arg. of periapsis80.4227°
True anomaly181.35416°
Mean anomaly181.3544°
Eccentric anomaly181.35428°
Mean motion3.89231 °/min
BSTAR-0.026998
Period92.49 mins
No data available

STARLINK-32272 Visibility forecast

Observer location: 39.9160978°, -105.1181434

STARLINK-32272 is not visible in the next 10 days
Span
Click to sort rows by Start time (UTC) header in descending order
Start Az.
Max El. time (UTC)
Max El. Az.
Max El.
End time (UTC)
End Az.